Location: Unspecified
(0.0000°N, 0.0000°E)
Time: 22:53:10
(UTC+01:00)

JASON 3 - Pass Details

Date: 11 October 2020
Orbit: 1332 x 1343 km, 66.0° (Epoch: 27 October)

Event Time Altitude Azimuth Distance (km) Brightness Sun altitude
Rises 07:01:47 0° 160° (SSE) 4,345 ? -11.1°
Reaches altitude 10° 07:07:32 10° 129° (SE) 3,372 ? -9.7°
Maximum altitude 07:09:48 11° 112° (ESE) 3,271 ? -9.2°
Drops below altitude 10° 07:12:05 10° 95° (E) 3,372 ? -8.6°
Sets 07:17:45 0° 64° (ENE) 4,344 ? -7.2°
